COSMOS 2527 (756)

Last updated on Thu Jul 03 2025 00:03:17 GMT+0000 (Coordinated Universal Time)

1 43508U 18053A 25183.01597687 -.00000041 00000+0 00000+0 0 9993 2 43508 65.3823 85.6046 0007065 235.1298 124.8409 2.13102266 54815
UTC large
Height (km)
Speed (km/s)
/
Latitude / Longitude
Inclination (degrees)
Orbital Period (minutes)
Azimuth
Elevation
Range (km)
Doppler Factor

Next 0 passes for location: London (51.5072 / 0.1276)

Sorry there are no passes over London.